EW6690 Weather Reports


time (UTC)temp
F
wind
direction
speed
knots
gust
knots
rain 1hr
in
rain 24hr
in
rain mn
in
humidity
%
barometer
mb
20260507032402 53 22 0.0 0.0 0.00 0.00 0.00 89 1019.2
20260507031920 53 22 0.0 0.0 0.00 0.00 0.00 89 1019.2
20260507031759 53 22 0.0 0.0 0.00 0.00 0.00 89 1019.2
20260507030915 53 22 0.0 0.0 0.00 0.00 0.00 89 1019.1
20260507030400 53 22 0.0 0.0 0.00 0.00 0.00 88 1019.1
20260507025912 53 22 0.0 0.0 0.00 0.00 0.00 88 1019.1
20260507025400 53 22 0.0 0.0 0.00 0.00 0.00 89 1019.1
20260507024903 53 22 0.0 0.0 0.00 0.00 0.00 88 1019.1
20260507024437 53 22 0.0 0.0 0.00 0.00 0.00 88 1019.1
20260507023902 53 22 0.0 0.0 0.00 0.00 0.00 88 1019.1
20260507023746 53 22 0.0 0.0 0.00 0.00 0.00 88 1018.9
20260507022901 54 22 0.0 0.0 0.00 0.00 0.00 87 1019.0
20260507022431 54 22 0.0 0.0 0.00 0.00 0.00 87 1018.9
20260507021900 54 22 0.0 0.0 0.00 0.00 0.00 86 1019.0
20260507021424 54 22 0.0 0.0 0.00 0.00 0.00 86 1019.0
20260507020859 54 22 0.0 0.0 0.00 0.00 0.00 86 1019.0
20260507020420 54 22 0.0 0.0 0.00 0.00 0.00 85 1019.1
20260507015859 54 22 0.0 0.0 0.00 0.00 0.00 85 1019.1
20260507015412 54 22 0.0 0.0 0.00 0.00 0.00 85 1019.1
20260507014855 54 22 0.0 0.0 0.00 0.00 0.00 85 1019.0
20260507014702 54 22 0.0 0.0 0.00 0.00 0.00 85 1019.0
20260507014244 54 22 0.0 0.0 0.00 0.00 0.00 85 1019.0
20260507013403 54 22 0.0 0.0 0.00 0.00 0.00 84 1019.0
20260507012854 54 22 0.0 0.0 0.00 0.00 0.00 84 1019.0
20260507012353 54 22 0.0 0.0 0.00 0.00 0.00 85 1019.0
20260507011931 54 22 0.0 0.0 0.00 0.00 0.00 85 1019.0
20260507011818 54 22 0.0 0.0 0.00 0.00 0.00 85 1019.1
20260507011806 54 22 0.0 0.0 0.00 0.00 0.00 84 1019.0
20260507010948 54 22 0.0 0.0 0.00 0.00 0.00 84 1019.0
20260507010444 54 22 0.0 0.0 0.00 0.00 0.00 85 1019.0
20260507005359 54 22 0.0 0.0 0.00 0.00 0.00 85 1019.1
20260507004917 54 22 0.0 0.0 0.00 0.00 0.00 84 1019.1
20260507004751 54 22 0.0 0.0 0.00 0.00 0.00 85 1019.1
20260507003909 54 299 0.0 0.0 0.00 0.00 0.00 85 1019.2
20260507003352 54 299 0.0 0.0 0.00 0.00 0.00 85 1019.2
20260507003115 54 299 0.0 0.0 0.00 0.00 0.00 84 1019.2
20260507003111 54 299 0.0 0.0 0.00 0.00 0.00 85 1019.2
20260507002935 54 299 0.0 0.0 0.00 0.00 0.00 84 1019.2
20260507001439 54 295 0.0 0.0 0.00 0.00 0.00 85 1019.3
20260507000851 54 295 0.0 0.0 0.00 0.00 0.00 85 1019.2
20260507000438 54 295 0.0 0.0 0.00 0.00 0.00 85 1019.3
20260506235851 54 295 0.0 0.0 0.00 0.00 0.00 84 1019.3
20260506235424 54 295 0.0 0.0 0.00 0.00 0.00 85 1019.3
20260506234849 53 295 0.0 0.0 0.00 0.00 0.00 83 1019.3
20260506234418 54 295 0.0 0.0 0.00 0.00 0.00 83 1019.3
20260506233851 53 295 0.0 0.0 0.00 0.00 0.00 83 1019.3
20260506233408 53 298 0.0 0.0 0.00 0.00 0.00 84 1019.3
20260506232850 53 296 0.0 0.0 0.00 0.00 0.00 84 1019.3
20260506232655 53 296 0.0 0.0 0.00 0.00 0.00 85 1019.3
20260506231849 53 296 0.0 0.0 0.00 0.00 0.00 85 1019.3
20260506231355 53 296 0.0 0.0 0.00 0.00 0.00 85 1019.4
20260506230931 53 296 0.0 0.0 0.00 0.00 0.00 85 1019.3
20260506230351 53 299 0.0 0.0 0.00 0.00 0.00 85 1019.3
20260506230223 53 296 0.0 0.0 0.00 0.00 0.00 85 1019.3
20260506225351 53 296 0.0 0.0 0.00 0.00 0.00 86 1019.3
20260506224922 53 310 0.0 0.0 0.00 0.00 0.00 86 1019.3
20260506224351 53 211 0.0 0.0 0.00 0.00 0.00 85 1019.3
20260506223914 53 302 0.0 0.0 0.00 0.00 0.00 86 1019.4
20260506223350 53 302 0.0 0.0 0.00 0.00 0.00 87 1019.4
20260506222908 53 274 0.0 0.0 0.00 0.00 0.00 87 1019.4
20260506222353 53 271 0.0 0.0 0.00 0.00 0.00 87 1019.5
20260506221906 53 271 0.0 0.0 0.00 0.00 0.00 87 1019.5
20260506221349 53 271 0.0 0.0 0.00 0.00 0.00 87 1019.6
20260506220855 53 281 0.0 0.0 0.00 0.00 0.00 87 1019.5
20260506220427 53 309 0.0 0.0 0.00 0.00 0.00 88 1019.5
20260506215855 53 308 0.0 0.0 0.00 0.00 0.00 88 1019.6
20260506215422 53 308 0.0 0.0 0.00 0.00 0.00 89 1019.5
20260506214845 53 309 0.0 0.9 0.00 0.00 0.00 89 1019.5
20260506214417 53 311 0.0 0.9 0.00 0.00 0.00 89 1019.5
20260506213843 53 246 0.0 0.0 0.00 0.00 0.00 90 1019.5
20260506213413 53 284 0.0 0.0 0.00 0.00 0.00 90 1019.4
20260506212844 53 292 0.0 0.0 0.00 0.00 0.00 91 1019.5
20260506212827 53 290 0.0 0.0 0.00 0.00 0.00 91 1019.4
20260506211844 53 292 0.0 0.0 0.00 0.00 0.00 90 1019.5
20260506211401 53 293 0.0 0.0 0.00 0.00 0.00 91 1019.5
20260506210845 53 293 0.0 0.0 0.00 0.00 0.00 91 1019.4
20260506210400 53 272 0.0 0.0 0.00 0.00 0.00 91 1019.4
20260506205843 53 234 0.0 0.0 0.00 0.00 0.00 91 1019.4
20260506205642 53 234 0.0 0.0 0.00 0.00 0.00 91 1019.4
20260506205446 53 234 0.0 0.0 0.00 0.00 0.00 90 1019.4
20260506204349 53 233 0.0 0.0 0.00 0.00 0.00 90 1019.3
20260506204220 53 233 0.0 0.0 0.00 0.00 0.00 90 1019.3
20260506203344 53 233 0.0 0.0 0.00 0.00 0.00 90 1019.3
20260506203228 54 224 0.0 0.0 0.00 0.00 0.00 90 1019.3
20260506202341 53 107 0.0 0.0 0.00 0.00 0.00 90 1019.3
20260506201910 54 161 0.0 0.0 0.00 0.00 0.00 90 1019.3
20260506201341 53 107 0.0 0.0 0.00 0.00 0.00 90 1019.2
20260506200909 53 136 0.0 0.0 0.00 0.00 0.00 90 1019.2
20260506200341 53 200 0.0 0.0 0.00 0.00 0.00 90 1019.2
20260506195903 53 215 0.0 1.7 0.00 0.00 0.00 90 1019.2
20260506195337 53 194 0.0 1.7 0.00 0.00 0.00 90 1019.2
20260506195159 54 216 0.0 2.6 0.00 0.00 0.00 90 1019.1
20260506194338 54 209 0.0 2.6 0.00 0.00 0.00 90 1019.0
20260506193856 54 148 0.0 0.0 0.00 0.00 0.00 91 1019.0
20260506193337 54 157 0.0 0.0 0.00 0.00 0.00 91 1019.0
20260506192848 53 158 0.0 0.0 0.00 0.00 0.00 91 1019.0
20260506192336 53 180 0.0 0.0 0.00 0.00 0.00 91 1019.0
20260506191842 53 149 0.0 0.0 0.00 0.00 0.00 91 1019.0
20260506191335 53 190 0.0 0.0 0.00 0.00 0.00 92 1019.0
20260506191124 53 210 0.0 0.9 0.00 0.00 0.00 92 1019.1
20260506190411 53 221 0.0 0.9 0.00 0.00 0.00 92 1019.1
20260506185834 53 201 0.0 0.9 0.00 0.00 0.00 92 1019.2
20260506185409 53 91 0.0 0.9 0.00 0.00 0.00 92 1019.1
20260506185228 53 203 0.0 0.9 0.00 0.00 0.00 93 1019.1
20260506184639 53 204 0.0 0.9 0.00 0.00 0.00 94 1019.1
20260506184438 53 205 0.0 0.9 0.00 0.00 0.00 93 1019.1
20260506183358 53 212 0.0 0.0 0.00 0.00 0.00 94 1018.9
20260506182833 53 212 0.0 0.0 0.00 0.00 0.00 95 1018.7
20260506182351 53 186 0.0 0.0 0.00 0.00 0.00 95 1018.7
20260506181831 53 149 0.0 0.0 0.00 0.00 0.00 95 1018.7
20260506181348 52 142 0.0 0.0 0.00 0.00 0.00 95 1018.7
20260506180835 52 142 0.0 0.0 0.00 0.00 0.00 95 1018.7
20260506180755 52 192 0.0 0.0 0.00 0.00 0.00 96 1018.7
20260506180446 52 142 0.0 0.0 0.00 0.00 0.00 95 1018.7
20260506175337 52 177 0.0 0.0 0.00 0.00 0.00 96 1018.7
20260506174913 52 219 0.0 0.0 0.00 0.00 0.00 96 1019.0
20260506174332 52 211 0.0 0.0 0.00 0.00 0.00 96 1018.9
20260506174022 52 217 0.0 0.0 0.00 0.00 0.00 96 1018.9
20260506173937 52 208 0.0 0.0 0.00 0.00 0.00 96 1018.9
20260506172901 52 205 0.0 0.0 0.00 0.00 0.00 96 1018.9
20260506172329 52 205 0.0 0.0 0.00 0.00 0.00 96 1019.0
20260506171858 52 320 0.0 0.0 0.00 0.00 0.00 96 1018.9
20260506171330 52 199 0.0 0.0 0.00 0.00 0.00 96 1018.7
20260506170852 52 212 0.0 0.0 0.00 0.00 0.00 96 1018.7
20260506170330 52 297 0.0 0.0 0.00 0.00 0.00 96 1018.6
20260506170139 52 219 0.0 0.0 0.00 0.00 0.00 96 1018.7
20260506165329 51 214 0.0 0.0 0.00 0.00 0.00 96 1018.6
20260506165133 51 194 0.0 0.0 0.00 0.00 0.00 96 1018.4
20260506164329 51 209 0.0 0.0 0.00 0.00 0.00 96 1018.2
20260506163836 51 211 0.0 0.0 0.00 0.00 0.00 96 1018.3
20260506163725 52 196 0.0 0.0 0.00 0.00 0.00 96 1018.2
20260506162832 51 204 0.0 0.0 0.00 0.00 0.00 96 1018.2
20260506162511 51 206 0.0 0.0 0.00 0.00 0.00 96 1018.1
20260506162429 51 205 0.0 0.0 0.00 0.00 0.00 96 1018.1
20260506161401 52 198 0.0 0.0 0.00 0.00 0.00 96 1018.3
20260506160827 51 214 0.0 0.0 0.00 0.00 0.00 96 1018.3
20260506160400 51 207 0.0 0.0 0.00 0.00 0.00 96 1018.5
20260506155827 51 218 0.0 0.0 0.00 0.00 0.00 96 1018.4
20260506155353 51 282 0.0 0.0 0.00 0.00 0.00 96 1018.4
20260506154825 51 200 0.0 0.0 0.00 0.00 0.00 96 1018.4
20260506154351 51 200 0.0 0.0 0.00 0.00 0.00 96 1018.3
20260506153826 51 200 0.0 0.0 0.00 0.00 0.00 96 1018.3
20260506153341 51 198 0.0 0.0 0.00 0.00 0.00 96 1018.2
20260506153032 51 215 0.0 0.0 0.00 0.00 0.00 96 1018.1
20260506152901 51 198 0.0 0.0 0.00 0.00 0.00 96 1018.2
20260506151827 51 225 0.0 0.0 0.00 0.00 0.00 96 1018.2
20260506151331 51 234 0.0 0.0 0.00 0.00 0.00 96 1018.2
20260506151211 51 234 0.0 0.0 0.00 0.00 0.00 96 1018.3
20260506150616 51 235 0.0 0.0 0.00 0.00 0.00 96 1018.3
20260506145856 51 235 0.0 0.0 0.00 0.00 0.00 96 1018.4
20260506145325 51 302 0.0 0.0 0.00 0.00 0.00 96 1018.4
20260506144856 51 306 0.0 0.0 0.00 0.00 0.00 96 1018.2
20260506144320 51 149 0.0 0.0 0.00 0.00 0.00 96 1018.1
20260506143849 51 123 0.0 0.0 0.00 0.00 0.00 96 1018.1
20260506143320 51 123 0.0 0.0 0.00 0.00 0.00 96 1017.9
20260506142847 51 213 0.0 0.0 0.00 0.00 0.00 96 1018.0
20260506142321 51 202 0.0 0.0 0.00 0.00 0.00 96 1017.9
20260506141838 51 207 0.0 0.0 0.00 0.00 0.00 96 1018.1
20260506141322 52 194 0.0 0.0 0.00 0.00 0.00 96 1018.0
20260506140835 52 191 0.0 0.0 0.00 0.00 0.00 96 1018.3
20260506140716 52 190 0.0 0.0 0.00 0.00 0.00 96 1018.1
20260506135839 52 136 0.0 0.0 0.00 0.00 0.00 96 1018.0
20260506135402 52 211 0.0 0.0 0.00 0.00 0.00 96 1018.2
20260506134821 52 190 0.0 0.0 0.00 0.00 0.00 95 1018.0
20260506134356 52 194 0.0 0.0 0.00 0.00 0.00 95 1017.9
20260506133822 52 214 0.0 0.0 0.00 0.00 0.00 95 1017.9
20260506133807 52 225 0.0 0.0 0.00 0.00 0.00 95 1017.9
20260506132820 52 227 0.0 0.0 0.00 0.00 0.00 95 1017.7
20260506132350 52 161 0.0 0.0 0.00 0.00 0.00 95 1017.4
20260506131819 52 186 0.0 0.0 0.00 0.00 0.00 95 1017.6
20260506131344 52 151 0.0 0.0 0.00 0.00 0.00 95 1017.5
20260506131213 52 151 0.0 0.0 0.00 0.00 0.00 95 1017.6
20260506130337 52 150 0.0 0.0 0.00 0.00 0.00 95 1017.6
20260506125817 52 150 0.0 0.0 0.00 0.00 0.00 95 1017.5
20260506125330 52 151 0.0 0.0 0.00 0.00 0.00 95 1017.4
20260506125214 52 150 0.0 0.0 0.00 0.00 0.00 95 1017.4
20260506124329 52 151 0.0 0.0 0.00 0.00 0.00 94 1017.3
20260506123816 52 150 0.0 0.0 0.00 0.00 0.00 94 1017.3
20260506123315 52 208 0.0 0.0 0.00 0.00 0.00 94 1017.2
20260506122850 52 209 0.0 0.0 0.00 0.00 0.00 94 1017.2
20260506122555 52 209 0.0 0.0 0.00 0.00 0.00 94 1017.3
20260506122405 52 209 0.0 0.0 0.00 0.00 0.00 94 1017.3
20260506121310 52 208 0.0 0.0 0.00 0.00 0.00 94 1017.2
20260506120839 52 211 0.0 0.0 0.00 0.00 0.00 94 1017.2
20260506120657 52 211 0.0 0.0 0.00 0.00 0.00 93 1017.1
20260506115834 52 211 0.0 0.0 0.00 0.00 0.00 93 1017.1
20260506115309 53 211 0.0 0.0 0.00 0.00 0.00 93 1017.1
20260506115114 53 211 0.0 0.0 0.00 0.00 0.00 93 1017.1
20260506114710 53 211 0.0 0.0 0.00 0.00 0.00 93 1017.2
20260506113819 53 211 0.0 0.0 0.00 0.00 0.00 93 1017.1
20260506113654 53 212 0.0 0.0 0.00 0.00 0.00 92 1017.1
20260506112814 53 212 0.0 0.0 0.00 0.00 0.00 92 1017.1
20260506112306 53 212 0.0 0.0 0.00 0.00 0.00 92 1017.1
20260506111818 53 212 0.0 0.0 0.00 0.00 0.00 92 1017.1
20260506111647 53 212 0.0 0.0 0.00 0.00 0.00 91 1017.0
20260506110808 53 212 0.0 0.0 0.00 0.00 0.00 91 1017.0
20260506110337 53 212 0.0 0.0 0.00 0.00 0.00 91 1017.0
20260506105827 53 212 0.0 0.0 0.00 0.00 0.00 91 1017.0
20260506105331 53 212 0.0 0.0 0.00 0.00 0.00 91 1016.9
20260506104808 53 212 0.0 0.0 0.00 0.00 0.00 91 1016.8
20260506104552 53 212 0.0 0.0 0.00 0.00 0.00 91 1016.7
20260506104404 53 212 0.0 0.0 0.00 0.00 0.00 91 1016.7
20260506103553 53 212 0.0 0.0 0.00 0.00 0.00 91 1016.6
20260506103402 53 212 0.0 0.0 0.00 0.00 0.00 91 1016.7
20260506102313 53 212 0.0 0.0 0.00 0.00 0.00 91 1016.6
20260506101808 53 212 0.0 0.0 0.00 0.00 0.00 91 1016.5
20260506101311 53 212 0.0 0.0 0.00 0.00 0.00 91 1016.5
20260506101146 53 212 0.0 0.0 0.00 0.00 0.00 91 1016.4
20260506100553 53 212 0.0 0.0 0.00 0.00 0.00 91 1016.4
20260506095840 53 212 0.0 0.0 0.00 0.00 0.00 91 1016.3
20260506095307 53 212 0.0 0.0 0.00 0.00 0.00 91 1016.3
20260506094943 53 212 0.0 0.0 0.00 0.00 0.00 90 1016.3
20260506094905 53 212 0.0 0.0 0.00 0.00 0.00 90 1016.3
20260506094130 53 212 0.0 0.0 0.00 0.00 0.00 90 1016.2
20260506093305 53 217 0.0 0.0 0.00 0.00 0.00 90 1016.2
20260506092823 53 216 0.0 0.0 0.00 0.00 0.00 90 1016.2
20260506092308 53 215 0.0 0.0 0.00 0.00 0.00 90 1016.1
20260506091818 53 215 0.0 0.0 0.00 0.00 0.00 91 1016.1
20260506091305 53 215 0.0 0.0 0.00 0.00 0.00 91 1016.1
20260506090810 53 215 0.0 0.0 0.00 0.00 0.00 91 1016.1
20260506090304 54 215 0.0 0.0 0.00 0.00 0.00 91 1016.1
20260506085809 54 215 0.0 0.0 0.00 0.00 0.00 91 1016.0
20260506085657 54 215 0.0 0.0 0.00 0.00 0.00 91 1016.0
20260506084802 54 215 0.0 0.0 0.00 0.00 0.00 91 1015.9
20260506084333 54 215 0.0 0.0 0.00 0.00 0.00 91 1015.9
20260506083800 54 220 0.0 0.0 0.00 0.00 0.00 91 1015.8
20260506083328 54 220 0.0 0.0 0.00 0.00 0.00 92 1015.8
20260506082800 54 220 0.0 0.0 0.00 0.00 0.00 92 1015.8
20260506082634 54 220 0.0 0.0 0.00 0.00 0.00 92 1015.9
20260506081800 54 220 0.0 0.0 0.00 0.00 0.00 92 1015.8
20260506081318 54 220 0.0 0.0 0.00 0.00 0.00 92 1015.9
20260506080759 54 220 0.0 0.0 0.00 0.00 0.00 92 1015.8
20260506080310 54 220 0.0 0.0 0.00 0.00 0.00 92 1015.8
20260506073256 54 220 0.0 0.0 0.00 0.00 0.00 92 1015.8
20260506072833 54 220 0.0 0.0 0.00 0.00 0.00 92 1015.8
20260506072651 54 220 0.0 0.0 0.00 0.00 0.00 92 1015.7
20260506072124 54 220 0.0 0.0 0.00 0.00 0.00 92 1015.7
20260506071255 54 220 0.0 0.0 0.00 0.00 0.00 92 1015.7
20260506070823 54 220 0.0 0.0 0.00 0.00 0.00 92 1015.5
20260506070656 54 220 0.0 0.0 0.00 0.00 0.00 93 1015.5
20260506061801 53 272 0.0 0.0 0.00 0.00 0.00 92 1014.9
20260506061333 53 272 0.0 0.0 0.00 0.00 0.00 92 1014.9
20260506060754 53 272 0.0 0.0 0.00 0.00 0.00 92 1014.9
20260506060637 53 272 0.0 0.0 0.00 0.00 0.00 93 1014.8
20260506050750 53 272 0.0 0.0 0.00 0.00 0.00 91 1014.6
20260506050254 54 272 0.0 0.0 0.00 0.00 0.00 90 1014.6
20260506044644 54 272 0.0 0.0 0.00 0.00 0.00 89 1014.6
20260506043823 54 272 0.0 0.0 0.00 0.00 0.00 89 1014.6
20260506043248 55 272 0.0 0.0 0.00 0.00 0.00 88 1014.5
20260506042818 55 272 0.0 0.0 0.00 0.00 0.00 88 1014.5
20260506042246 55 272 0.0 0.0 0.00 0.00 0.00 87 1014.5
20260506041811 56 272 0.0 0.0 0.00 0.00 0.00 86 1014.5
20260506041248 56 272 0.0 0.0 0.00 0.00 0.00 84 1014.4
20260506040806 57 272 0.0 0.0 0.00 0.00 0.00 83 1014.4
20260506040641 58 272 0.0 0.0 0.00 0.00 0.00 82 1014.4
20260506035803 58 272 0.0 0.0 0.00 0.00 0.00 82 1014.2
20260506035246 58 272 0.0 0.0 0.00 0.00 0.00 81 1014.1
20260506034753 58 272 0.0 0.0 0.00 0.00 0.00 81 1014.2
20260506034247 59 272 0.0 0.0 0.00 0.00 0.00 80 1014.1
20260506033747 59 272 0.0 0.0 0.00 0.00 0.00 79 1014.0
20260506033324 59 271 0.0 0.0 0.00 0.00 0.00 78 1014.0